GW5706 Weather Reports


time (UTC)temp
C
wind
direction
speed
KPH
gust
KPH
rain 1hr
cm
rain 24hr
cm
rain mn
cm
humidity
%
barometer
mb
20260510104021 16 282 6.4 8.0 0.00 0.00 0.00 57 1015.8
20260510103021 16 286 6.4 8.0 0.00 0.00 0.00 58 1015.7
20260510102022 16 282 6.4 8.0 0.00 0.00 0.00 59 1015.6
20260510101023 16 278 6.4 9.7 0.00 0.00 0.00 60 1015.5
20260510100022 16 287 6.4 11.3 0.00 0.00 0.00 61 1015.3
20260510095021 16 285 8.0 11.3 0.00 0.00 0.00 62 1015.2
20260510094022 16 282 8.0 11.3 0.00 0.00 0.00 62 1015.1
20260510093022 16 291 6.4 9.7 0.00 0.00 0.00 64 1015.1
20260510092022 16 286 6.4 9.7 0.00 0.00 0.00 63 1014.9
20260510091021 16 285 8.0 9.7 0.00 0.00 0.00 63 1014.9
20260510090022 16 285 6.4 9.7 0.00 0.00 0.00 63 1014.9
20260510085021 16 288 8.0 9.7 0.00 0.00 0.00 62 1014.9
20260510084022 16 286 6.4 11.3 0.00 0.00 0.00 61 1014.8
20260510083022 16 274 6.4 9.7 0.00 0.00 0.00 59 1014.9
20260510082021 16 279 6.4 8.0 0.00 0.00 0.00 59 1014.8
20260510081022 16 288 4.8 8.0 0.00 0.00 0.00 59 1014.7
20260510080021 17 278 6.4 8.0 0.00 0.00 0.00 57 1014.6
20260510075024 17 286 6.4 9.7 0.00 0.00 0.00 56 1014.6
20260510074021 17 259 8.0 12.9 0.00 0.00 0.00 54 1014.5
20260510073022 17 276 6.4 12.9 0.00 0.00 0.00 56 1014.6
20260510072021 16 182 1.6 3.2 0.00 0.00 0.00 59 1014.6
20260510071022 16 152 1.6 6.4 0.00 0.00 0.00 58 1014.6
20260510070021 16 156 1.6 8.0 0.00 0.00 0.00 59 1014.5
20260510065022 17 305 4.8 9.7 0.00 0.00 0.00 57 1014.4
20260510064024 17 285 6.4 11.3 0.00 0.00 0.00 57 1014.4
20260510063022 17 287 4.8 11.3 0.00 0.00 0.00 57 1014.4
20260510062021 17 287 6.4 11.3 0.00 0.00 0.00 56 1014.4
20260510061022 17 264 8.0 16.1 0.00 0.00 0.00 56 1014.4
20260510060023 17 283 6.4 11.3 0.00 0.00 0.00 55 1014.5
20260510055022 17 270 8.0 12.9 0.00 0.00 0.00 55 1014.4
20260510054021 17 269 4.8 14.5 0.00 0.00 0.00 55 1014.4
20260510053022 18 284 6.4 11.3 0.00 0.00 0.00 54 1014.2
20260510052023 18 263 6.4 12.9 0.00 0.00 0.00 55 1014.4
20260510051022 18 257 8.0 14.5 0.00 0.00 0.00 53 1014.4
20260510050021 17 290 6.4 11.3 0.00 0.00 0.00 56 1014.3
20260510045022 17 289 6.4 9.7 0.00 0.00 0.00 55 1014.3
20260510044021 17 284 6.4 9.7 0.00 0.00 0.00 56 1014.4
20260510043021 17 266 6.4 9.7 0.00 0.00 0.00 57 1014.3
20260510042022 17 293 4.8 11.3 0.00 0.00 0.00 57 1014.4
20260510041021 18 277 6.4 9.7 0.00 0.00 0.00 58 1014.3
20260510040021 18 282 6.4 9.7 0.00 0.00 0.00 58 1014.3
20260510035022 18 287 6.4 9.7 0.00 0.00 0.00 58 1014.3
20260510034021 18 286 6.4 14.5 0.00 0.00 0.00 60 1014.3
20260510033026 18 277 4.8 8.0 0.00 0.00 0.00 59 1014.3
20260510032022 18 278 4.8 11.3 0.00 0.00 0.00 65 1014.3
20260510031021 18 241 3.2 6.4 0.00 0.00 0.00 66 1014.2
20260510030022 18 239 0.0 8.0 0.00 0.00 0.00 67 1014.1
20260510025021 18 136 1.6 6.4 0.00 0.00 0.00 66 1014.1
20260510024022 18 85 3.2 11.3 0.00 0.00 0.00 66 1013.9
20260510023021 18 37 3.2 9.7 0.00 0.00 0.00 65 1013.9
20260510022021 18 93 1.6 6.4 0.00 0.00 0.00 64 1013.6
20260510021022 18 9 3.2 8.0 0.00 0.00 0.00 64 1013.5
20260510020021 18 136 1.6 6.4 0.00 0.00 0.00 64 1013.4
20260510015022 19 42 1.6 8.0 0.00 0.00 0.00 63 1013.3
20260510014021 18 59 3.2 6.4 0.00 0.00 0.00 63 1013.1
20260510013022 19 62 4.8 8.0 0.00 0.00 0.00 63 1013.0
20260510012021 19 84 4.8 9.7 0.00 0.00 0.00 63 1012.9
20260510011022 19 73 4.8 6.4 0.00 0.00 0.00 63 1012.8
20260510010021 19 62 3.2 11.3 0.00 0.00 0.00 63 1012.7
20260510005022 19 49 6.4 9.7 0.00 0.00 0.00 63 1012.5
20260510004022 19 43 1.6 11.3 0.00 0.00 0.00 63 1012.3
20260510003021 18 91 4.8 11.3 0.00 0.00 0.00 64 1012.3
20260510002022 18 80 4.8 8.0 0.00 0.00 0.00 65 1012.2
20260510001022 18 79 4.8 11.3 0.00 0.00 0.00 64 1012.1
20260510000021 19 60 3.2 8.0 0.00 0.00 0.00 64 1011.9
20260509235022 19 88 4.8 9.7 0.00 0.00 0.00 64 1011.9
20260509234021 19 69 1.6 8.0 0.00 0.00 0.00 64 1011.9
20260509233022 19 99 3.2 8.0 0.00 0.00 0.00 63 1011.8
20260509232022 20 61 3.2 6.4 0.00 0.00 0.00 62 1011.9
20260509231024 20 87 4.8 11.3 0.00 0.00 0.00 62 1011.9
20260509230024 20 103 3.2 8.0 0.00 0.00 0.00 61 1011.8
20260509225021 21 128 1.6 8.0 0.00 0.00 0.00 57 1011.8
20260509224021 21 104 3.2 9.7 0.00 0.00 0.00 58 1011.9
20260509223022 22 107 3.2 11.3 0.00 0.00 0.00 56 1011.9
20260509222022 22 111 1.6 6.4 0.00 0.00 0.00 56 1011.9
20260509221022 22 314 3.2 6.4 0.00 0.00 0.00 55 1011.8
20260509220021 22 73 4.8 11.3 0.00 0.00 0.00 55 1011.8
20260509215021 23 157 1.6 8.0 0.00 0.00 0.00 54 1011.8
20260509214022 23 180 1.6 11.3 0.00 0.00 0.00 54 1011.7
20260509213021 20 148 0.0 6.4 0.00 0.00 0.00 61 1011.8
20260509212021 20 61 4.8 6.4 0.00 0.00 0.00 59 1011.7
20260509211023 20 307 1.6 6.4 0.00 0.00 0.00 59 1011.7
20260509210022 20 65 8.0 17.7 0.00 0.00 0.00 60 1011.7
20260509205021 21 81 6.4 11.3 0.00 0.00 0.00 58 1011.4
20260509204021 21 133 0.0 11.3 0.00 0.00 0.00 60 1011.4
20260509203022 20 148 1.6 11.3 0.00 0.00 0.00 59 1011.4
20260509202023 21 168 1.6 9.7 0.00 0.00 0.00 57 1011.3
20260509201022 21 93 4.8 11.3 0.00 0.00 0.00 58 1011.3
20260509200021 22 274 3.2 6.4 0.00 0.00 0.00 56 1011.4
20260509195023 22 340 4.8 11.3 0.00 0.00 0.00 55 1011.6
20260509194022 22 148 4.8 14.5 0.00 0.00 0.00 55 1011.7
20260509193022 22 355 3.2 9.7 0.00 0.00 0.00 54 1011.8
20260509192021 21 356 1.6 9.7 0.00 0.00 0.00 59 1011.8
20260509191022 22 220 1.6 9.7 0.00 0.00 0.00 56 1012.0
20260509190022 22 107 4.8 20.9 0.00 0.00 0.00 53 1012.1
20260509185024 22 284 4.8 11.3 0.00 0.00 0.00 56 1012.2
20260509184022 23 98 3.2 6.4 0.00 0.00 0.00 54 1012.3
20260509183021 22 200 4.8 11.3 0.00 0.00 0.00 55 1012.5
20260509182022 21 241 4.8 17.7 0.00 0.00 0.00 55 1012.7
20260509181021 21 308 8.0 16.1 0.00 0.00 0.00 57 1012.9
20260509180024 22 257 1.6 8.0 0.00 0.00 0.00 60 1013.0
20260509175022 22 9 6.4 11.3 0.00 0.00 0.00 61 1013.1
20260509174021 20 282 6.4 12.9 0.00 0.00 0.00 61 1013.2
20260509173022 21 305 4.8 14.5 0.00 0.00 0.00 61 1013.3
20260509172021 21 298 1.6 16.1 0.00 0.00 0.00 61 1013.3
20260509171022 20 114 4.8 11.3 0.00 0.00 0.00 66 1013.5
20260509170021 18 131 3.2 12.9 0.00 0.00 0.00 69 1013.5
20260509165024 18 30 4.8 11.3 0.00 0.00 0.00 70 1013.4
20260509164021 18 88 6.4 12.9 0.00 0.00 0.00 70 1013.6
20260509163021 18 84 4.8 16.1 0.00 0.00 0.00 68 1013.5
20260509162022 18 147 4.8 14.5 0.00 0.00 0.00 68 1013.4
20260509161021 18 135 1.6 20.9 0.00 0.00 0.00 69 1013.5
20260509160022 18 52 11.3 22.5 0.00 0.00 0.00 68 1013.4
20260509155022 16 153 4.8 14.5 0.00 0.00 0.00 74 1013.5
20260509154022 16 93 3.2 16.1 0.00 0.00 0.00 76 1013.5
20260509153023 15 109 8.0 16.1 0.00 0.00 0.00 77 1013.6
20260509152022 15 176 1.6 22.5 0.00 0.00 0.00 75 1013.9
20260509151021 15 154 3.2 12.9 0.00 0.00 0.00 75 1013.8
20260509150021 14 125 4.8 20.9 0.00 0.00 0.00 75 1013.9
20260509145022 13 67 8.0 20.9 0.00 0.00 0.00 76 1013.9
20260509144022 15 137 8.0 24.1 0.00 0.00 0.00 74 1013.7
20260509143022 13 62 12.9 24.1 0.00 0.00 0.00 75 1013.5
20260509142025 13 127 9.7 20.9 0.00 0.00 0.00 76 1013.6
20260509141022 12 103 8.0 20.9 0.00 0.00 0.00 78 1013.8
20260509140021 12 96 9.7 14.5 0.00 0.00 0.00 79 1014.1
20260509135022 12 85 8.0 20.9 0.00 0.00 0.00 79 1014.1
20260509134021 12 105 6.4 16.1 0.00 0.00 0.00 77 1014.1
20260509133022 11 90 8.0 19.3 0.00 0.00 0.00 77 1014.1
20260509132024 12 94 4.8 17.7 0.00 0.00 0.00 77 1014.1
20260509131022 11 81 11.3 20.9 0.00 0.00 0.00 75 1014.2
20260509130021 11 120 9.7 20.9 0.00 0.00 0.00 75 1014.3
20260509125022 11 76 8.0 14.5 0.00 0.00 0.00 74 1014.3
20260509124022 12 82 6.4 16.1 0.00 0.00 0.00 71 1014.4
20260509123021 12 61 3.2 12.9 0.00 0.00 0.00 69 1014.3
20260509122022 11 74 4.8 11.3 0.00 0.00 0.00 71 1014.3
20260509121021 12 78 6.4 12.9 0.00 0.00 0.00 69 1014.2
20260509120022 12 138 6.4 11.3 0.00 0.00 0.00 67 1014.2
20260509115023 12 80 6.4 11.3 0.00 0.00 0.00 67 1014.3
20260509114022 12 104 6.4 19.3 0.00 0.00 0.00 66 1014.2
20260509113022 12 62 8.0 16.1 0.00 0.00 0.00 66 1014.3
20260509112021 13 91 3.2 11.3 0.00 0.00 0.00 65 1014.2
20260509111022 12 74 4.8 12.9 0.00 0.00 0.00 66 1014.2
20260509110021 12 71 6.4 12.9 0.00 0.00 0.00 64 1014.3
20260509105022 12 110 4.8 12.9 0.00 0.00 0.00 65 1014.2